Location: Newark
(35.5000°N, 109.0000°E)
Time: 04:32:55
(UTC+00:00)

X-37B - Visible Passes

Search period start: 25 September 2020 00:00
Search period end: 05 October 2020 00:00
Orbit: 386 x 387 km, 45.0° (Epoch: 18 September)

Date Brightness Start Highest point End Pass type
(mag) Time Alt. Az. Time Alt. Az. Time Alt. Az.
25 Sep 1.6 21:32:21 25° WSW 21:32:58 27° SW 21:35:43 10° SSE visible
26 Sep 3.5 20:37:17 12° SE 20:37:17 12° SE 20:37:37 10° SE visible
30 Sep 1.9 11:45:46 10° SSW 11:47:55 26° SSE 11:47:55 26° SSE visible
01 Oct 2.6 12:23:18 10° WSW 12:24:55 27° WSW 12:24:55 27° WSW visible
02 Oct 0.6 11:24:46 10° SW 11:27:53 60° SE 11:29:26 26° ENE visible
03 Oct 1.8 12:03:00 10° W 12:05:58 36° NNW 12:06:06 36° NNW visible
04 Oct 0.9 11:04:11 10° WSW 11:07:19 65° NNW 11:10:22 11° NE visible
04 Oct 3.9 12:42:04 10° WNW 12:42:39 13° NW 12:42:39 13° NW visible
